When you browse on this site, cookies collect data to enhance your experience and personalize the content and advertising you see.
Visit our Privacy Policy to learn more. By continuing to use the site, you agree to this use of cookies and data.
  • Em Portugal
  • Lista de países
  • Para 7 dias
  • Temperatura da água
  • Mapa do tempo
  • Widgets de tempo
  • user-avatar
    Iniciar Sessão

    Previsão horária em Vlora

    Hoje, 21 Agosto, Quarta-feira

    Tempo Temperatura Precipitação Vento Pressão Humidade
    00:00 +26°C° 0 mm 1 m/s 762 mmHg 57%
    01:00 +26°C° 0 mm 1 m/s 762 mmHg 56%
    02:00 +26°C° 0 mm 1 m/s 762 mmHg 56%
    03:00 +26°C° 0 mm 1 m/s 762 mmHg 56%
    04:00 +25°C° 0 mm 1 m/s 762 mmHg 56%
    05:00 +27°C° 0 mm 1 m/s 762 mmHg 51%
    06:00 +29°C° 0 mm 1 m/s 762 mmHg 47%
    07:00 +30°C° 0 mm 1 m/s 762 mmHg 42%
    08:00 +31°C° 0 mm 1 m/s 762 mmHg 41%
    09:00 +32°C° 0 mm 2 m/s 762 mmHg 40%
    10:00 +34°C° 0 mm 2 m/s 762 mmHg 39%
    11:00 +35°C° 0 mm 2 m/s 762 mmHg 39%
    12:00 +35°C° 0 mm 2 m/s 761 mmHg 38%
    13:00 +35°C° 0 mm 2 m/s 761 mmHg 38%
    14:00 +35°C° 0 mm 2 m/s 761 mmHg 39%
    15:00 +35°C° 0 mm 2 m/s 760 mmHg 40%
    16:00 +34°C° 0 mm 2 m/s 760 mmHg 41%
    17:00 +31°C° 0 mm 3 m/s 760 mmHg 48%
    18:00 +30°C° 0 mm 3 m/s 760 mmHg 55%
    19:00 +28°C° 0 mm 3 m/s 760 mmHg 62%
    20:00 +27°C° 0 mm 3 m/s 761 mmHg 62%
    21:00 +27°C° 0 mm 3 m/s 761 mmHg 61%
    22:00 +27°C° 0 mm 3 m/s 761 mmHg 61%
    23:00 +27°C° 0 mm 2 m/s 761 mmHg 61%

    Amanhã, 22 Agosto, Quinta-feira

    Tempo Temperatura Precipitação Vento Pressão Humidade
    00:00 +27°C° 0 mm 2 m/s 761 mmHg 61%
    01:00 +26°C° 0 mm 2 m/s 761 mmHg 61%
    02:00 +26°C° 0 mm 2 m/s 761 mmHg 61%
    03:00 +26°C° 0 mm 1 m/s 761 mmHg 62%
    04:00 +26°C° 0 mm 1 m/s 761 mmHg 63%
    05:00 +27°C° 0 mm 1 m/s 761 mmHg 58%
    06:00 +29°C° 0 mm 1 m/s 762 mmHg 53%
    07:00 +30°C° 0 mm 1 m/s 762 mmHg 48%
    08:00 +32°C° 0 mm 1 m/s 762 mmHg 42%
    09:00 +34°C° 0 mm 1 m/s 762 mmHg 37%
    10:00 +36°C° 0 mm 1 m/s 762 mmHg 32%
    11:00 +37°C° 0 mm 2 m/s 762 mmHg 32%
    12:00 +37°C° 0 mm 2 m/s 761 mmHg 32%
    13:00 +37°C° 0 mm 3 m/s 761 mmHg 32%
    14:00 +37°C° 0 mm 2 m/s 761 mmHg 34%
    15:00 +36°C° 0 mm 2 m/s 761 mmHg 35%
    16:00 +35°C° 0 mm 2 m/s 760 mmHg 37%
    17:00 +34°C° 0 mm 2 m/s 761 mmHg 42%
    18:00 +31°C° 0 mm 2 m/s 761 mmHg 48%
    19:00 +29°C° 0 mm 2 m/s 761 mmHg 53%
    20:00 +29°C° 0 mm 2 m/s 761 mmHg 53%
    21:00 +28°C° 0 mm 3 m/s 762 mmHg 52%
    22:00 +28°C° 0 mm 3 m/s 762 mmHg 51%
    23:00 +28°C° 0 mm 2 m/s 762 mmHg 50%

    Depois de amanhã, 23 Agosto, Sexta-feira

    Tempo Temperatura Precipitação Vento Pressão Humidade
    00:00 +28°C° 0 mm 2 m/s 762 mmHg 48%
    01:00 +28°C° 0 mm 2 m/s 762 mmHg 46%
    02:00 +28°C° 0 mm 2 m/s 762 mmHg 46%
    03:00 +27°C° 0 mm 2 m/s 762 mmHg 46%
    04:00 +27°C° 0 mm 3 m/s 762 mmHg 47%
    05:00 +29°C° 0 mm 3 m/s 762 mmHg 44%
    06:00 +30°C° 0 mm 3 m/s 762 mmHg 41%
    07:00 +33°C° 0 mm 3 m/s 762 mmHg 38%
    08:00 +34°C° 0 mm 3 m/s 762 mmHg 35%
    09:00 +36°C° 0 mm 4 m/s 762 mmHg 32%
    10:00 +37°C° 0 mm 4 m/s 762 mmHg 29%
    11:00 +36°C° 0 mm 4 m/s 762 mmHg 33%
    12:00 +35°C° 0 mm 5 m/s 762 mmHg 38%
    13:00 +34°C° 0 mm 5 m/s 762 mmHg 42%
    14:00 +34°C° 0 mm 5 m/s 761 mmHg 42%
    15:00 +35°C° 0 mm 4 m/s 761 mmHg 41%
    16:00 +35°C° 0 mm 4 m/s 761 mmHg 40%
    17:00 +33°C° 0 mm 4 m/s 761 mmHg 45%
    18:00 +32°C° 0 mm 4 m/s 761 mmHg 49%
    19:00 +30°C° 0 mm 4 m/s 761 mmHg 54%
    20:00 +30°C° 0 mm 4 m/s 761 mmHg 53%
    21:00 +29°C° 0 mm 4 m/s 761 mmHg 51%
    22:00 +29°C° 0 mm 4 m/s 762 mmHg 50%
    23:00 +29°C° 0 mm 4 m/s 762 mmHg 52%

    24 Agosto, Sábado

    Tempo Temperatura Precipitação Vento Pressão Humidade
    00:00 +28°C° 0 mm 5 m/s 761 mmHg 53%
    01:00 +28°C° 0 mm 5 m/s 761 mmHg 55%
    02:00 +28°C° 0 mm 5 m/s 761 mmHg 54%
    03:00 +28°C° 0 mm 4 m/s 761 mmHg 53%
    04:00 +28°C° 0 mm 3 m/s 761 mmHg 52%
    05:00 +29°C° 0 mm 3 m/s 761 mmHg 48%
    06:00 +30°C° 0 mm 3 m/s 761 mmHg 44%
    07:00 +31°C° 0 mm 2 m/s 761 mmHg 40%
    08:00 +34°C° 0 mm 3 m/s 761 mmHg 38%
    09:00 +35°C° 0 mm 3 m/s 761 mmHg 35%
    10:00 +37°C° 0 mm 4 m/s 762 mmHg 32%
    11:00 +36°C° 0 mm 4 m/s 761 mmHg 35%
    12:00 +36°C° 0 mm 5 m/s 761 mmHg 38%
    13:00 +35°C° 0 mm 5 m/s 761 mmHg 41%
    14:00 +36°C° 0 mm 5 m/s 760 mmHg 40%
    15:00 +36°C° 0 mm 5 m/s 760 mmHg 39%
    16:00 +36°C° 0 mm 4 m/s 760 mmHg 38%
    17:00 +34°C° 0 mm 5 m/s 760 mmHg 44%
    18:00 +32°C° 0 mm 5 m/s 760 mmHg 50%
    19:00 +29°C° 0 mm 5 m/s 760 mmHg 56%
    20:00 +28°C° 0 mm 6 m/s 760 mmHg 61%
    21:00 +28°C° 0 mm 7 m/s 760 mmHg 65%
    22:00 +28°C° 0 mm 7 m/s 761 mmHg 70%
    23:00 +27°C° 0 mm 6 m/s 760 mmHg 72%

    25 Agosto, Domingo

    Tempo Temperatura Precipitação Vento Pressão Humidade
    00:00 +27°C° 0 mm 6 m/s 760 mmHg 75%
    01:00 +26°C° 0 mm 5 m/s 760 mmHg 78%
    02:00 +26°C° 0 mm 4 m/s 760 mmHg 72%
    03:00 +26°C° 0 mm 4 m/s 760 mmHg 67%
    04:00 +27°C° 0 mm 4 m/s 760 mmHg 61%
    05:00 +28°C° 0 mm 4 m/s 760 mmHg 56%
    06:00 +29°C° 0 mm 4 m/s 760 mmHg 51%
    07:00 +30°C° 0 mm 4 m/s 760 mmHg 45%
    08:00 +33°C° 0 mm 5 m/s 760 mmHg 42%
    09:00 +35°C° 0 mm 5 m/s 760 mmHg 38%
    10:00 +36°C° 0 mm 5 m/s 760 mmHg 35%
    11:00 +36°C° 0 mm 6 m/s 760 mmHg 38%
    12:00 +36°C° 0 mm 6 m/s 760 mmHg 40%
    13:00 +35°C° 0 mm 7 m/s 759 mmHg 43%
    14:00 +35°C° 0 mm 7 m/s 759 mmHg 44%
    15:00 +35°C° 0 mm 6 m/s 759 mmHg 45%
    16:00 +34°C° 0 mm 6 m/s 759 mmHg 46%
    17:00 +33°C° 0 mm 6 m/s 759 mmHg 53%
    18:00 +30°C° 0 mm 6 m/s 759 mmHg 60%
    19:00 +28°C° 0 mm 6 m/s 759 mmHg 67%
    20:00 +28°C° 0 mm 6 m/s 759 mmHg 65%
    21:00 +28°C° 0 mm 5 m/s 760 mmHg 62%
    22:00 +28°C° 0 mm 5 m/s 760 mmHg 60%
    23:00 +28°C° 0 mm 5 m/s 760 mmHg 58%

    26 Agosto, Segunda-feira

    Tempo Temperatura Precipitação Vento Pressão Humidade
    00:00 +28°C° 0 mm 5 m/s 760 mmHg 55%
    01:00 +28°C° 0 mm 5 m/s 759 mmHg 53%
    02:00 +28°C° 0 mm 5 m/s 759 mmHg 52%
    03:00 +28°C° 0 mm 5 m/s 759 mmHg 52%
    04:00 +27°C° 0 mm 4 m/s 759 mmHg 52%
    05:00 +29°C° 0 mm 4 m/s 760 mmHg 49%
    06:00 +30°C° 0 mm 4 m/s 760 mmHg 46%
    07:00 +32°C° 0 mm 4 m/s 760 mmHg 42%
    08:00 +34°C° 0 mm 5 m/s 760 mmHg 38%
    09:00 +36°C° 0 mm 5 m/s 760 mmHg 33%
    10:00 +38°C° 0 mm 6 m/s 760 mmHg 28%
    11:00 +38°C° 0 mm 6 m/s 760 mmHg 32%
    12:00 +36°C° 0 mm 7 m/s 760 mmHg 36%
    13:00 +35°C° 0 mm 7 m/s 760 mmHg 39%
    14:00 +35°C° 0 mm 7 m/s 760 mmHg 41%
    15:00 +34°C° 0 mm 7 m/s 760 mmHg 42%
    16:00 +34°C° 0 mm 7 m/s 759 mmHg 44%
    17:00 +33°C° 0 mm 7 m/s 760 mmHg 46%
    18:00 +32°C° 0 mm 6 m/s 760 mmHg 49%
    19:00 +30°C° 0 mm 5 m/s 760 mmHg 52%
    20:00 +30°C° 0 mm 5 m/s 760 mmHg 50%
    21:00 +30°C° 0 mm 5 m/s 760 mmHg 48%
    22:00 +30°C° 0 mm 5 m/s 761 mmHg 45%
    23:00 +29°C° 0 mm 5 m/s 761 mmHg 46%
    Mostrar mais